Airfield :
LOGIN :

Register | Disclaimer

   EN    FR    IT 

 










Legend :    VFR   Marginal VFR   IFR   Intensive IFR   Very Intensive IFR
Visi :
Ceiling :
>= 8 km
>= 3000ft
5 to 8 km
1000 to 3000 ft
1500m to 5 km
500 to 1000 ft
800 to 1500m
200 to 500 ft
< 800m
< 200 ft
Symbols :   Thunderstorms  Fog  Heavy snow  Heavy precipitations  Wind > 20 kt
SIGMETs :     Misc.  Thunderstorms  Icing  Turbulence  Mountain Waves  Volcanic Ashes







- Airport Elevation : 327 ft
- IATA code : BHX
- Download approach charts


EGBB - Birmingham

CURRENT METAR :
  • 202220Z 14003KT CAVOK 12/06 Q1028

EXPIRED METARs :
  • 202150Z 15003KT CAVOK 13/07 Q1028
  • 202120Z 13004KT 020V160 CAVOK 13/07 Q1028
  • 202050Z VRB01KT CAVOK 14/07 Q1028
  • 202020Z VRB02KT CAVOK 16/07 Q1028
  • 201950Z 16003KT CAVOK 17/06 Q1028

TAF TAF EGBB
Valid from the 20 at 18:00 until the 21 at 18:00 UTC


201652Z 2018/2118 09005KT CAVOK
PROB30 2023/2102 8000
BECMG 2102/2105 6000
PROB30 2104/2107 3000 BR MIFG
BECMG 2107/2110 CAVOK
ATIS : +44 121 780 0910
No reported NOTAMs for that airfield.



MET'MAP, your aeronautical weather chart ! - Copyright ORBIFLY December 2007 - Disclaimer

ORBIFLY MET'MAP TEAM :

Programming & Development : Alexandra Zaïnal
Concept & Development : Baudouin d'Aumeries
Co-Development & Prog : Marc-Olivier Méhu
Technical & hardware support : Manuel Goepfert

Contact : metmap@orbifly.com




SOURCES & CREDITS :

   NOAA